Location: Newark
(54.3386°S, 169.8415°W)
Time: 09:13:30
(UTC+00:00)

Explorer 7 - All Passes

Search period start: 14 October 2019 00:00
Search period end: 24 October 2019 00:00
Orbit: 485 x 680 km, 50.3° (Epoch: 13 October)

Date Brightness Start Highest point End Pass type
(mag) Time Alt. Az. Time Alt. Az. Time Alt. Az.
14 Oct - 12:05:42 10° NNE 12:07:56 13° NE 12:10:09 10° ENE visible
14 Oct - 13:43:11 10° NW 13:47:36 34° NNE 13:51:54 10° E visible
14 Oct - 15:23:03 10° WNW 15:27:47 53° N 15:32:18 10° E visible
14 Oct - 17:03:32 10° W 17:08:02 42° NNW 17:12:16 10° NE daylight
14 Oct - 18:44:41 10° W 18:47:48 18° NW 18:50:48 10° N daylight
15 Oct - 12:09:18 10° N 12:12:36 18° NE 12:15:52 10° E visible
15 Oct - 13:47:50 10° NW 13:52:27 41° NNE 13:56:55 10° E visible
15 Oct - 15:27:58 10° WNW 15:32:43 53° N 15:37:14 10° ENE visible
15 Oct - 17:08:33 10° W 17:12:53 35° NNW 17:16:59 10° NE daylight
15 Oct - 18:50:20 10° WNW 18:52:28 13° NW 18:54:33 10° NNW daylight
16 Oct - 12:13:25 10° NNW 12:17:20 24° NNE 12:21:11 10° E visible
16 Oct - 13:52:36 10° WNW 13:57:20 47° NNE 14:01:54 10° E visible
16 Oct - 15:32:54 10° W 15:37:38 51° N 15:42:07 10° ENE visible
16 Oct - 17:13:36 10° W 17:17:41 29° NNW 17:21:33 10° NNE daylight
17 Oct - 10:41:59 10° NE 10:42:35 10° NE 10:43:10 10° NE visible
17 Oct - 12:17:48 10° NNW 12:22:06 30° NNE 12:26:19 10° E visible
17 Oct - 13:57:26 10° WNW 14:02:14 51° N 14:06:51 10° E visible
17 Oct - 15:37:51 10° W 15:42:31 47° NNW 15:46:58 10° ENE daylight
17 Oct - 17:18:45 10° W 17:22:26 23° NNW 17:25:58 10° NNE daylight
18 Oct - 10:44:29 10° N 10:47:12 15° NE 10:49:55 10° ENE visible
18 Oct - 12:22:23 10° NW 12:26:55 37° NNE 12:31:23 10° E visible
18 Oct - 14:02:20 10° WNW 14:07:09 54° N 14:11:47 10° ENE visible
18 Oct - 15:42:50 10° W 15:47:23 41° NNW 15:51:44 10° NE daylight
18 Oct - 17:24:05 10° W 17:27:08 17° NW 17:30:04 10° N daylight
19 Oct - 10:48:19 10° N 10:51:52 20° NE 10:55:26 10° E visible
19 Oct - 12:27:05 10° NW 12:31:46 43° NNE 12:36:23 10° E visible
19 Oct - 14:07:15 10° W 14:12:04 53° N 14:16:42 10° ENE visible
19 Oct - 15:47:51 10° W 15:52:13 34° NNW 15:56:23 10° NE daylight
19 Oct - 17:29:53 10° WNW 17:31:46 12° NW 17:33:38 10° NNW daylight
20 Oct - 10:52:32 10° NNW 10:56:37 26° NNE 11:00:40 10° E visible
20 Oct - 12:31:52 10° WNW 12:36:39 49° NNE 12:41:21 10° E visible
20 Oct - 14:12:11 10° W 14:16:58 50° N 14:21:34 10° ENE visible
20 Oct - 15:52:55 10° W 15:57:01 27° NNW 16:00:55 10° NNE daylight
21 Oct - 09:20:07 10° NNE 09:21:49 12° NE 09:23:31 10° ENE night (unlit)
21 Oct - 10:56:59 10° NW 11:01:24 32° NNE 11:05:46 10° E visible
21 Oct - 12:36:43 10° WNW 12:41:34 53° N 12:46:17 10° E visible
21 Oct - 14:17:08 10° W 14:21:51 45° NNW 14:26:23 10° ENE visible
21 Oct - 15:58:06 10° W 16:01:45 21° NW 16:05:15 10° NNE daylight
22 Oct - 09:23:25 10° N 09:26:27 16° NE 09:29:30 10° ENE night (unlit)
22 Oct - 11:01:36 10° NW 11:06:13 39° NNE 11:10:48 10° E visible
22 Oct - 12:41:36 10° WNW 12:46:28 54° N 12:51:12 10° ENE visible
22 Oct - 14:22:07 10° W 14:26:42 39° NNW 14:31:07 10° NE visible
22 Oct - 16:03:30 10° WNW 16:06:25 16° NW 16:09:16 10° N daylight
23 Oct - 09:27:24 10° NNW 09:31:08 22° NE 09:34:54 10° E night (unlit)
23 Oct - 11:06:20 10° WNW 11:11:04 45° NNE 11:15:47 10° E visible
23 Oct - 12:46:32 10° W 12:51:23 53° N 12:56:06 10° ENE visible
23 Oct - 14:27:09 10° W 14:31:32 32° NNW 14:35:45 10° NE visible
23 Oct - 16:09:31 10° WNW 16:11:02 11° NW 16:12:32 10° NNW daylight
